Location: Althorst
(53.6379°N, 10.7715°E)
Time: 02:06:03
(UTC+00:00)

USA 229 DEB - Pass Details

Date: 10 December 2019
Orbit: 995 x 1217 km, 63.4° (Epoch: 19 January)

Event Time Altitude Azimuth Distance (km) Brightness Sun altitude
Rises 16:04:52 0° 296° (WNW) 3,852 7.2 -9.3°
Reaches altitude 10° 16:07:38 10° 304° (NW) 2,928 6.4 -9.7°
Maximum altitude 16:14:13 42° 14° (NNE) 1,568 4.3 -10.5°
Enters shadow 16:20:23 13° 81° (E) 2,848 5.3 -11.4°
